Preview of NWS' New Version of Forecast
This preview is not operational and should not be used for support decisions.

Regional Weather Roundup (RWR)

Issued by National Weather Service (NWS)

                            
000
ASUS45 KCYS 200610
RWRWY 

WYOMING REGIONAL WEATHER ROUNDUP
NATIONAL WEATHER SERVICE CHEYENNE WY
1200 AM MDT SAT APR 20 2019

NOTE:  "FAIR" INDICATES FEW OR NO CLOUDS BELOW 12,000 FEET
WITH NO SIGNIFICANT WEATHER AND/OR OBSTRUCTIONS TO VISIBILITY.

WYZ001-200700-
...YELLOWSTONE NATIONAL PARK...
  
CITY           SKY/WX    TMP DP  RH WIND       PRES   REMARKS
LK YELLOWSTONE   N/A     32  27  81 CALM      30.04F                  
6HR MIN TEMP:  31; 6HR MAX TEMP:  53;                                

W YELLOWSTONE  NOT AVBL                                               

$$
WYZ002>013-054>058-071-098>099-200700-
...NORTHERN WYOMING...
  
CITY           SKY/WX    TMP DP  RH WIND       PRES   REMARKS
JACKSON        PTCLDY    42  31  64 CALM      30.01F                  
CODY           MOCLDY    62  29  28 W8        29.86F                  
GREYBULL       MOCLDY    59  28  30 SE6       29.80S                  
6HR MIN TEMP:  57; 6HR MAX TEMP:  78;                                

WORLAND        PTCLDY    51  32  48 CALM      29.81F                  
6HR MIN TEMP:  48; 6HR MAX TEMP:  77;                                

SHERIDAN       PTCLDY    47  35  63 W3        29.79F                  
6HR MIN TEMP:  47; 6HR MAX TEMP:  76;                                

BUFFALO        PTCLDY    55  33  43 SW8       29.84F                  
6HR MIN TEMP:  53; 6HR MAX TEMP:  73;                                

GILLETTE       CLEAR     52  36  54 S16       29.81F                  
6HR MIN TEMP:  47; 6HR MAX TEMP:  71;                                

HULETT         FAIR      52  36  54 S8        29.83F                  
NEWCASTLE      FAIR      46  32  57 CALM      29.86S                  

$$
WYZ014>020-022>026-101>103-200700-
...CENTRAL WYOMING...
  
CITY           SKY/WX    TMP DP  RH WIND       PRES   REMARKS
BIG PINEY      PTCLDY    39  27  62 E7        30.05F WCI  34          
6HR MIN TEMP:  37; 6HR MAX TEMP:  65;                                

PINEDALE       CLEAR     32  30  93 NW5       30.07F WCI  27          
DUBOIS         FAIR      37  27  65 W13       30.01F WCI  29          
LANDER         MOCLDY    59  30  33 SW13      29.89F                  
6HR MIN TEMP:  58; 6HR MAX TEMP:  73;                                

RIVERTON       CLOUDY    54  28  36 SW8       29.91S                  
6HR MIN TEMP:  53; 6HR MAX TEMP:  73;                                

CASPER         CLEAR     50  34  54 SW12      29.91F                  
6HR MIN TEMP:  48; 6HR MAX TEMP:  71;                                

DOUGLAS        CLEAR     46  36  68 SE7       29.91F                  
6HR MIN TEMP:  43; 6HR MAX TEMP:  73;                                


$$
WYZ021-027>030-104>119-200700-
...SOUTHERN WYOMING...
  
CITY           SKY/WX    TMP DP  RH WIND       PRES   REMARKS
EVANSTON       PTCLDY    48  23  37 SE6       30.05F                  
6HR MIN TEMP:  48; 6HR MAX TEMP:  62;                                

KEMMERER       PTCLDY    43  27  52 N5        30.07S                  
FORT BRIDGER   FAIR      46  28  49 SW6       30.08                   
ROCK SPRINGS   CLEAR     48  28  46 SW8       30.05F                  
6HR MIN TEMP:  47; 6HR MAX TEMP:  66;                                

DIXON          FAIR      39  27  61 E3        30.10S                  
RAWLINS        CLEAR     47  25  42 SW9       30.04F                  
6HR MIN TEMP:  46; 6HR MAX TEMP:  68;                                

SARATOGA       FAIR      41  23  48 SE9       30.08S                  
LARAMIE        CLEAR     41  27  57 S6        30.07F                  
6HR MIN TEMP:  38; 6HR MAX TEMP:  65;                                

CHEYENNE       CLEAR     45  32  60 W13       30.02F                  
6HR MIN TEMP:  45; 6HR MAX TEMP:  70;                                

TORRINGTON     CLEAR     54  38  54 E3        29.90F                  
6HR MIN TEMP:  54; 6HR MAX TEMP:  76;                                

PINE BLUFFS    FAIR      46  34  61 S10       29.98F                  

$$